This is the latest recevied telemetry packets stored in our database for station/object HS9BZG. If no packets are shown the sender has not sent any telemetry packets the latest 1 day(s).
Telemetry packets is used to share measurements like repeteater parameters, battery voltage, radiation readings (or any other measurements).
| Time | TEMP* | HUM* | BAR* | BAT* | Value5* |
|---|---|---|---|---|---|
| 1778027346 | 34.13 °C | 43.1 %RH | 990.7 hPa | 4.16 V | 0 |
| 1778026746 | 33.97 °C | 43.7 %RH | 990.7 hPa | 4.16 V | 0 |
| 1778026146 | 33.79 °C | 44.4 %RH | 990.6 hPa | 4.17 V | 0 |
| 1778025546 | 33.69 °C | 45.1 %RH | 990.4 hPa | 4.16 V | 0 |
| 1778024946 | 33.66 °C | 45.9 %RH | 990.3 hPa | 4.16 V | 0 |
| 1778024346 | 33.58 °C | 46.5 %RH | 990.2 hPa | 4.16 V | 0 |
| 1778023746 | 33.6 °C | 47.2 %RH | 990.1 hPa | 4.16 V | 0 |
| 1778023146 | 33.62 °C | 48 %RH | 990 hPa | 4.16 V | 0 |
| 1778022546 | 33.65 °C | 49 %RH | 989.9 hPa | 4.17 V | 0 |
| 1778021946 | 33.62 °C | 49.3 %RH | 989.8 hPa | 4.16 V | 0 |
| 1778021345 | 33.64 °C | 49.1 %RH | 989.8 hPa | 4.16 V | 0 |
| 1778020746 | 33.68 °C | 49 %RH | 989.7 hPa | 4.16 V | 0 |
| 1778020145 | 33.7 °C | 48.9 %RH | 989.6 hPa | 4.17 V | 0 |
| 1778019545 | 33.74 °C | 48.7 %RH | 989.6 hPa | 4.16 V | 0 |
| 1778018945 | 33.8 °C | 48.6 %RH | 989.6 hPa | 4.16 V | 0 |
| 1778018345 | 33.8 °C | 48.5 %RH | 989.5 hPa | 4.16 V | 0 |
| 1778017745 | 33.79 °C | 48.5 %RH | 989.4 hPa | 4.16 V | 0 |
| 1778017145 | 33.79 °C | 48.3 %RH | 989.3 hPa | 4.16 V | 0 |
| 1778016545 | 33.78 °C | 48.2 %RH | 989.3 hPa | 4.16 V | 0 |
| 1778015945 | 33.77 °C | 48.2 %RH | 989.3 hPa | 4.16 V | 0 |
| 1778015345 | 33.77 °C | 48 %RH | 989.2 hPa | 4.16 V | 0 |
| 1778014745 | 33.82 °C | 47.9 %RH | 989.2 hPa | 4.16 V | 0 |
| 1778014145 | 33.83 °C | 47.9 %RH | 989.3 hPa | 4.16 V | 0 |
| 1778013548 | 33.55 °C | 48.1 %RH | 989.3 hPa | 4.16 V | 0 |
| 1778012945 | 33.24 °C | 48 %RH | 989.3 hPa | 4.09 V | 0 |
*Used Equation Coefficients:
TEMP: 0, 0.01, 0
HUM: 0, 0.1, 0
BAR: 0, 0.1, 800
BAT: 0, 0.01, 0
Value5: 0, 1, 0
- The parameter names for the analog channels will be Value1, Value2, Value3 (up to Value5) if station has not sent a PARAM-packet that specifies the parameter names for each analog channel.
- Each analog value is a decimal number between 000 and 255 (according to APRS specifications). The receiver use the telemetry equation coefficientsto to restore the original sensor values. If no EQNS-packet with equation coefficients is sent we will show the values as is (this corresponds to the equation coefficients a=0, b=1 and c=0).
The sent equation coefficients is used in the equation: a * value2 + b * value + c. - The units for the analog values will not be shown if station has not sent a UNIT-packet specifying what unit's to use.
- The parameter names for the digital bits will be Bit1, Bit2, Bit3 (up to Bit8) if station has not sent a PARAM-packet that specifies the parameter names for each digital bit.
- All bit labels will be named "On" if station has not sent a UNIT-packet that specifies the label of each bit.
- A bit is considered to be On when the bit is 1 if station has not sent a BITS-packet that specifies another "Bit sense" (a BITS-packet specify the state of the bits that match the BIT labels)